Location: ????????
(55.7833°N, 38.9333°E)
Time: 14:59:06
(UTC+00:00)

Daily predictions for brighter satellites

Satellite Brightness Start Highest point End
(mag) Time Altitude Azimuth Time Altitude Azimuth Time Altitude Azimuth
Cosmos 1125 Rocket 4.4 16:02:41 10° SW 16:07:53 55° NW 16:13:08 10° NNE
NOSS 2-1 (E) 3.9 16:05:01 10° WSW 16:08:37 59° NNW 16:13:05 10° NE
Meteor 2-8 Rocket 4.5 16:03:27 10° S 16:09:31 83° E 16:15:40 10° NNE
Cosmos 1842 3.3 16:05:54 10° NNW 16:09:54 90° W 16:13:53 10° S
Cosmos 1833 4.3 16:04:21 10° SSW 16:09:55 57° ESE 16:15:28 10° NE
Cosmos 405 4.3 16:09:27 10° NNW 16:12:50 44° W 16:16:10 10° S
Cosmos 2341 Rocket 4.5 16:08:09 10° N 16:14:07 42° ENE 16:20:00 10° SE
ARGOS 3.7 16:10:31 10° SE 16:15:28 39° ENE 16:20:28 10° N
Cosmos 2074 Rocket 4.1 16:09:50 10° NNW 16:16:09 88° W 16:22:23 10° S
COSMO-SKYMED 1 3.2 16:12:03 10° N 16:16:22 63° WNW 16:20:39 10° SSW
Cosmos 1437 Rocket 4.5 16:15:59 10° NNE 16:18:29 16° ENE 16:20:57 10° E
Cosmos 2251 Rocket 4.2 16:13:27 10° NNW 16:18:45 60° WSW 16:24:03 10° S
RESURS DK-1 4.3 16:17:09 10° NNW 16:20:02 18° NNE 16:22:55 10° ENE
H-2A R/B 2.5 16:16:19 10° SE 16:20:57 42° ENE 16:25:41 10° N
SJ 16-02 4.2 16:19:49 10° WNW 16:22:15 14° NW 16:24:40 10° N
BREEZE M DEB (TANK) 3.1 16:21:00 10° SSW 16:22:47 21° SSE 16:25:33 10° ESE
Cosmos 2333 Rocket 2.5 16:18:21 10° NW 16:24:03 74° WSW 16:29:45 10° SSE
Cosmos 2151 Rocket 3.5 16:19:46 10° S 16:24:09 74° E 16:28:34 10° NNE
Cosmos 1300 Rocket 3.5 16:23:31 10° S 16:27:50 81° E 16:32:11 10° NNE
ASTEX 1 3.7 16:24:58 10° NNE 16:29:40 45° E 16:34:21 10° SSE
Cosmos 405 Rocket 4.3 16:30:21 10° ESE 16:32:33 15° E 16:34:46 10° NE
Meteor 2-5 Rocket 4.4 16:27:33 10° N 16:32:54 37° ENE 16:38:19 10° SE
COSMOS 2455 4.1 16:27:23 10° NW 16:33:00 41° WSW 16:38:34 10° S
Cosmos 1461 3.6 16:30:19 10° S 16:33:47 29° ESE 16:37:14 10° ENE
CZ-4C R/B 3.2 16:28:15 10° W 16:33:48 53° NNW 16:40:29 10° ENE
SAR-Lupe-2 3.8 16:33:13 10° NNE 16:36:43 45° E 16:40:10 10° S
Cosmos 2237 Rocket 2.3 16:31:15 10° NNW 16:36:58 69° NE 16:42:40 10° SE
Cosmos 1544 3.2 16:34:01 10° S 16:37:29 48° E 16:41:00 10° NNE
Cosmos 2154 Rocket 4.0 16:31:14 10° N 16:37:29 84° ENE 16:43:42 10° SSE
CZ-4 R/B 4.3 16:35:10 10° SW 16:38:06 20° W 16:41:06 10° NW
Cosmos 1190 Rocket 4.2 16:34:35 10° NNW 16:39:53 61° ENE 16:45:07 10° SE
In-Cosmos 22 4.3 16:34:57 10° N 16:40:11 52° ENE 16:45:28 10° SE
Cosmos 1980 3.7 16:40:08 10° NNW 16:45:50 81° NE 16:51:31 10° SE
Cosmos 1455 Rocket 4.3 16:46:32 11° SE 16:49:47 23° E 16:53:17 10° NE
Cosmos 1441 Rocket 3.1 16:47:24 10° S 16:51:10 62° E 16:54:55 10° NNE
SL-08 RB Rocket 4.0 16:47:23 10° SE 16:51:52 50° ENE 16:56:25 10° N
FREGAT/IRIS 3.6 16:50:23 10° S 16:53:05 45° W 16:55:50 10° NNW
SL-8 Rocket 4.1 16:47:58 10° N 16:54:05 55° ENE 17:00:08 10° SSE
Cosmos 389 Rocket 2.3 16:52:25 10° N 16:55:52 69° ENE 16:59:11 11° SSE
ERBS 2.3 16:52:52 10° WNW 16:56:16 84° NNE 16:58:31 20° ESE
CZ-2C R/B 3.3 16:57:57 12° SE 17:02:47 56° ENE 17:08:13 10° N
Cosmos 1674 3.5 16:59:41 10° N 17:03:05 32° ENE 17:04:51 21° ESE
BREEZE-M DEB (TANK) 3.7 16:59:27 10° WSW 17:03:30 58° S 17:10:32 15° ESE
Cosmos 1626 Rocket 4.5 16:59:43 10° N 17:03:34 30° ENE 17:05:42 20° ESE
NOSS 3-4 (A) 4.2 16:57:16 10° NW 17:03:59 60° SW 17:11:22 10° SSE
NOSS 3-4 (C) 4.2 16:57:23 10° NW 17:04:06 61° SW 17:11:28 10° SSE
SL-16 R/B 2.5 17:00:26 10° NNW 17:06:01 53° NE 17:10:00 19° ESE
Resurs 1-3 3.6 17:02:03 11° SSE 17:06:16 68° ENE 17:10:39 10° NNW
Cosmos 1707 3.1 17:03:37 10° NNW 17:07:32 67° W 17:11:25 10° S
SJ-6B 3.3 17:03:57 10° S 17:08:03 65° WSW 17:12:08 10° NNW
Resurs 01 Rocket 1.8 17:04:28 15° SE 17:08:05 57° ENE 17:12:28 10° N
Meteor 2-17 Rocket 4.4 17:02:33 10° N 17:08:41 74° ENE 17:14:44 10° SSE
Okean 1 Rocket 3.0 17:05:14 10° S 17:09:34 88° W 17:13:59 10° NNE
Meteor 1-4 Rocket 2.4 17:07:19 10° NNW 17:10:56 76° ENE 17:13:38 16° SSE
GP-B 4.2 17:06:45 10° N 17:11:02 47° W 17:15:17 10° SSW
Cosmos 2056 Rocket 4.2 17:07:37 10° SSE 17:12:23 32° ESE 17:17:09 10° NE
Cosmos 407 Rocket 3.6 17:08:08 10° NNW 17:13:19 77° WSW 17:18:08 12° SSE
COSMOS 2428 4.1 17:09:30 10° NW 17:14:41 37° WSW 17:19:49 10° S
Cosmos 2219 Rocket 3.6 17:10:14 10° NW 17:15:20 37° WSW 17:20:24 10° S
NOSS 3-3 (A) 4.0 17:11:07 10° SW 17:17:16 82° SE 17:24:16 10° NE
NOSS 3-3 (C) 4.0 17:11:14 10° SW 17:17:22 81° SE 17:24:22 10° NE
Cosmos 614 Rocket 4.1 17:12:10 10° NNW 17:17:25 76° WSW 17:22:09 12° SSE
KORONAS-FOTON 4.3 17:14:38 10° N 17:18:16 40° ENE 17:19:44 27° ESE
USA 186 3.4 17:18:34 10° SSW 17:21:45 37° W 17:24:59 10° NNW
Cosmos 1602 Rocket 4.2 17:19:21 10° N 17:23:26 36° ENE 17:25:03 27° ESE
Cosmos 1624 Rocket 4.4 17:19:52 10° S 17:24:39 39° ESE 17:29:28 10° NE
USA 234 3.3 17:22:59 15° E 17:28:41 81° N 17:35:16 10° W
SPOT 3 Rocket 4.3 17:23:49 10° S 17:28:50 51° W 17:33:53 10° NNW
Nadezhda 1 Rocket 4.4 17:24:50 10° SSW 17:30:52 65° WNW 17:36:57 10° N
CZ-2C R/B 3.7 17:27:04 10° NNE 17:31:43 27° E 17:32:49 25° ESE
Cosmos 1954 Rocket 3.9 17:28:46 10° NNW 17:34:04 87° ENE 17:37:18 24° SSE
Timation 2 Rocket 4.2 17:27:32 10° SW 17:34:04 79° NW 17:40:22 10° NE
Cosmos 1766 3.8 17:34:15 34° ESE 17:34:44 35° E 17:38:21 10° NNE
Meteor 1-15 Rocket 4.2 17:29:55 10° S 17:35:41 76° E 17:41:35 10° NNE
ADEOS Rocket 3.4 17:30:08 10° NNE 17:37:14 70° ESE 17:44:52 10° S
Cosmos 1892 Rocket 4.1 17:34:57 10° NNW 17:39:22 61° W 17:43:33 11° S
IGS 5A 4.5 17:38:37 27° E 17:39:27 29° ENE 17:43:04 10° N
Okean 1-7 Rocket 4.1 17:36:31 10° NNW 17:40:52 58° W 17:45:09 10° S
ERS-1 Rocket 3.6 17:40:29 29° ESE 17:42:17 38° ENE 17:46:56 10° N
Spot 2 Rocket 3.4 17:39:55 26° SSE 17:42:48 72° ENE 17:47:51 10° NNW
Cosmos 2219 3.2 17:37:47 10° SSW 17:43:25 59° ESE 17:49:04 10° NE
Cosmos 1140 Rocket 3.7 17:38:24 10° NNW 17:43:35 67° WSW 17:47:06 20° S
Cosmos 2227 Rocket 2.6 17:39:46 10° S 17:44:59 40° ESE 17:50:14 10° NE
Terra 3.1 17:44:18 23° E 17:45:28 25° ENE 17:49:20 10° N
ATLAS 2AS CENTAUR R/B 4.4 17:40:26 10° WNW 17:46:58 31° WSW 17:53:04 10° S
Cosmos 1371 Rocket 3.9 17:49:43 10° SSW 17:55:00 71° ESE 18:00:22 10° NNE
Cosmos 1437 Rocket 2.8 17:51:25 10° NNW 17:55:16 74° WSW 17:56:41 37° S
MetOp-B 4.1 17:52:21 28° SSE 17:55:17 82° ENE 18:00:40 10° NNW
ARGOS 4.1 17:50:32 10° S 17:55:42 47° W 18:00:55 10° NNW
Cosmos 2297 Rocket 2.3 17:50:38 10° S 17:56:02 48° ESE 18:01:28 10° NE
RESURS DK-1 2.6 17:54:51 10° NNW 17:58:57 55° NE 17:59:46 46° E
H-2A R/B 3.2 17:55:50 10° SSW 18:00:27 39° W 18:05:11 10° NNW
Meteor 1-24 Rocket 3.8 17:57:06 10° NNW 18:02:49 81° WSW 18:06:25 25° S
Cosmos 676 Rocket 4.5 17:59:39 10° NNW 18:04:50 57° WSW 18:07:45 25° S
Cosmos 1452 Rocket 4.3 18:07:47 32° E 18:07:47 32° E 18:11:43 10° NE
Cosmos 1626 2.6 18:03:34 10° N 18:06:54 44° ENE 18:06:54 44° ENE
Cosmos 405 Rocket 3.0 18:05:17 16° SSW 18:08:05 64° WNW 18:11:49 10° N
Cosmos 2181 Rocket 4.1 18:02:45 10° SSW 18:09:01 79° WNW 18:15:26 10° N
Cosmos 1943 3.9 18:05:11 10° NNW 18:10:39 44° NE 18:12:36 32° E
Cosmos 1461 3.3 18:08:44 10° WSW 18:12:40 58° NW 18:16:37 10° NE
Cosmos 1953 4.5 18:18:08 15° NE 18:18:08 15° NE 18:19:15 10° NE
Meteor 2-5 Rocket 4.5 18:10:57 10° NNW 18:16:33 52° W 18:21:08 16° SSW
Cosmos 2237 Rocket 3.8 18:15:46 10° NW 18:20:39 30° WSW 18:24:48 13° SSW
Nadezhda 3 Rocket 4.1 18:21:39 42° SE 18:23:14 53° E 18:29:16 10° NNE
CZ-4C R/B 3.5 18:17:36 10° WNW 18:23:31 45° N 18:29:20 15° ENE
Cosmos 1544 Rocket 3.9 18:23:43 24° SSW 18:26:22 67° WNW 18:30:52 10° N
Cosmos 1455 Rocket 3.7 18:23:36 14° SSW 18:27:17 56° WNW 18:31:43 10° N
USA 245 4.4 18:24:35 34° S 18:27:32 81° WSW 18:33:19 10° NNW
Cosmos 1805 3.4 18:29:36 58° SW 18:30:13 70° WNW 18:34:07 10° N
Cosmos 1953 Rocket 4.1 18:26:04 10° N 18:30:16 46° ENE 18:30:16 46° ENE
CARTOSAT-1 3.6 18:31:43 62° ENE 18:31:43 62° ENE 18:36:01 10° N
ERBS 3.9 18:29:22 10° W 18:31:32 28° WSW 18:31:32 28° WSW
Cosmos 1605 Rocket 4.4 18:28:01 10° N 18:34:12 46° ENE 18:35:30 41° E
Cosmos 1850 Rocket 4.1 18:31:40 10° NNW 18:36:52 71° WSW 18:38:00 53° S
Cosmos 1271 Rocket 4.1 18:34:01 10° N 18:36:27 28° NNE 18:36:27 28° NNE
Cosmos 1821 Rocket 3.9 18:31:20 10° NNW 18:37:35 89° E 18:39:36 46° SSE
Cosmos 1674 4.3 18:35:20 10° NNW 18:38:36 29° W 18:39:41 24° WSW
Meteor 1-22 Rocket 4.4 18:36:47 22° SSW 18:40:55 83° WNW 18:47:05 10° NNE
SPOT 5 2.7 18:41:49 72° SE 18:42:16 81° ENE 18:47:18 10° NNW
Resurs 01 Rocket 3.6 18:42:03 13° SW 18:44:55 24° W 18:48:32 10° NW
Cosmos 1603 3.6 18:39:31 10° NNW 18:45:13 79° NE 18:46:12 61° ESE
MOS 1 Rocket 4.1 18:42:56 10° NNE 18:47:15 43° ENE 18:47:15 43° ENE
Cosmos 1825 Rocket 3.5 18:44:01 10° NNW 18:48:09 79° N 18:48:09 79° N
DMSP B5D2-2 4.4 18:44:19 10° NNE 18:49:35 66° WNW 18:52:53 23° SW
SL-16 R/B 3.1 18:44:47 10° NW 18:50:04 41° WSW 18:51:54 32° SSW
Landsat 7 3.9 18:50:48 60° SSW 18:51:24 67° WSW 18:56:11 10° NNW
Cosmos 2056 Rocket 4.1 18:48:57 10° SW 18:54:18 58° NW 18:59:40 10° NNE
SL-14 R/B 4.0 18:51:08 10° NNW 18:54:56 50° W 18:54:56 50° W
Cosmos 1758 Rocket 3.6 18:52:38 10° NNW 18:56:43 72° WNW 18:56:43 72° WNW
SPOT 1/Viking Rocket 3.8 18:58:12 53° SSW 18:59:09 63° WSW 19:04:19 10° NNW
Cosmos 1420 Rocket 3.9 19:01:43 63° SSW 19:02:36 89° WNW 19:07:59 10° NNE
Cosmos 2082 3.6 19:08:35 53° SSW 19:10:03 90° SE 19:15:49 10° NE
USA 234 3.1 19:10:20 58° ESE 19:11:47 82° SSW 19:18:23 10° WNW
CZ-2C R/B 2.9 19:06:58 10° NNE 19:12:29 70° WNW 19:14:19 43° SW
IGS 5A 4.4 19:15:05 42° W 19:15:05 42° W 19:18:48 10° NNW
Cosmos 1486 Rocket 4.2 19:11:54 10° NNW 19:17:00 59° NE 19:17:00 59° NE
ERS-1 Rocket 3.7 19:20:29 42° WSW 19:21:03 44° W 19:25:54 10° NNW
Cosmos 2082 Rocket 4.5 19:17:09 10° NNW 19:21:13 19° NNE 19:25:18 10° ENE
Terra 2.1 19:23:12 65° WNW 19:23:12 65° WNW 19:27:38 10° NNW
Thor Agena Rocket 3.7 19:21:37 10° NNE 19:26:20 68° NE 19:26:20 68° NE
Cosmos 2219 4.4 19:22:26 10° WSW 19:27:52 41° NW 19:33:18 10° NNE
Cosmos 2227 Rocket 2.8 19:23:23 10° SW 19:28:57 55° NW 19:34:33 10° NNE
ALOS 2 4.3 19:30:36 25° NE 19:30:36 25° NE 19:33:23 10° N
Cosmos 1459 Rocket 4.4 19:25:52 10° N 19:31:42 46° ENE 19:31:43 46° ENE
RESURS DK-1 4.3 19:33:17 10° NW 19:35:39 23° W 19:35:39 23° W
Cosmos 2297 Rocket 3.1 19:34:43 10° WSW 19:40:11 47° NW 19:45:40 10° NNE
Cosmos 1503 Rocket 4.5 19:36:38 10° NNW 19:41:22 53° NNE 19:41:22 53° NNE
Cosmos 1626 4.5 19:39:22 10° NW 19:41:29 20° WNW 19:41:29 20° WNW
Cosmos 1934 Rocket 4.4 19:38:14 10° NNW 19:44:07 52° W 19:45:04 48° WSW
Cosmos 1452 Rocket 4.1 19:48:04 47° W 19:48:58 53° NW 19:54:09 10° NNE
Spot 4 4.4 19:50:37 55° N 19:50:37 55° N 19:54:30 10° NNW
Cosmos 1953 4.1 19:53:49 31° NNW 19:53:49 31° NNW 19:56:13 10° N
Cosmos 2016 Rocket 4.5 19:46:55 10° N 19:52:40 47° ENE 19:52:40 47° ENE
Cosmos 1943 3.7 19:49:20 10° NW 19:54:24 52° W 19:54:24 52° W
Cosmos 2263 Rocket 3.4 19:59:53 31° ENE 19:59:53 31° ENE 20:02:58 10° NE
Meteor 1-11 4.3 19:53:10 10° NNW 19:58:18 70° WNW 19:58:18 70° WNW
Cosmos 2285 Rocket 3.9 19:54:34 10° NNW 20:01:02 86° WSW 20:01:02 86° WSW
Cosmos 968 Rocket 3.9 19:56:13 10° NNW 20:00:34 59° N 20:00:34 59° N
Mayak 0.8 19:58:58 10° NNE 20:00:31 22° NNE 20:00:31 22° NNE
Cosmos 1727 Rocket 4.0 20:04:40 70° ENE 20:04:40 70° ENE 20:10:25 10° NNE
ATLAS CENTAUR R/B 4.3 20:10:33 11° NE 20:10:33 11° NE 20:10:49 10° NE
Cosmos 839 Rocket 4.2 19:59:52 10° NW 20:06:08 62° NE 20:06:41 60° ENE
Cosmos 1833 Rocket 4.4 20:01:50 10° NNW 20:06:34 27° NNE 20:08:33 22° ENE
CZ-4C R/B 2.9 20:06:27 10° NW 20:13:03 69° NNE 20:14:29 57° E
Cosmos 2100 Rocket 4.1 20:27:13 10° NNW 20:33:15 72° WNW 20:33:15 72° WNW
Cosmos 1725 Rocket 4.1 20:44:36 10° N 20:50:09 72° N 20:50:09 72° N
USA 234 4.3 20:57:41 32° W 20:57:41 32° W 21:01:31 10° WNW
Terra 4.4 21:02:05 12° WNW 21:02:05 12° WNW 21:03:30 10° WNW
Cosmos 2173 Rocket 4.5 20:56:06 10° NNW 21:01:49 52° WNW 21:01:49 52° WNW
Cosmos 2082 Rocket 3.3 21:01:38 10° NNW 21:06:59 38° NE 21:07:54 36° ENE
Cosmos 1844 Rocket 4.0 21:10:56 30° ENE 21:10:56 30° ENE 21:14:09 10° NE
Cosmos 2227 Rocket 4.4 21:09:51 10° WNW 21:14:16 22° NNW 21:18:42 10° NNE
COSMOS 2406 3.8 21:17:08 10° NW 21:21:34 54° NNW 21:21:34 54° NNW
SJ 16-02 3.6 21:21:08 10° N 21:24:32 21° NE 21:24:38 21° NE
Cosmos 2233 Rocket 4.2 21:27:26 10° NNW 21:32:42 65° NW 21:32:42 65° NW
Mayak 1.1 21:35:04 10° N 21:37:06 20° NNW 21:37:06 20° NNW
Cosmos 2263 Rocket 3.0 21:41:34 46° NW 21:41:34 46° NW 21:47:02 10° NNE
Cosmos 1607 4.3 21:43:07 58° ENE 21:43:07 58° ENE 21:48:01 10° NE
ATLAS CENTAUR R/B 3.1 21:46:45 37° NNE 21:46:45 37° NNE 21:49:52 10° NE
H-2A R/B 4.2 21:49:27 22° NE 21:49:27 22° NE 21:52:06 10° N
Cosmos 1833 Rocket 3.2 21:45:45 10° NNW 21:50:12 55° NNW 21:50:12 55° NNW
Cosmos 1818 4.2 21:54:52 53° N 21:54:52 53° N 21:59:34 10° NE
Cosmos 2278 Rocket 3.7 21:55:39 26° E 21:55:39 26° E 21:59:14 10° NE
Resurs 1-4 Rocket 4.1 21:53:17 10° NE 21:56:57 19° E 21:56:58 19° E
USA 267 3.2 21:54:33 10° ENE 22:00:39 77° E 22:00:39 77° E
CZ-4C R/B 3.5 21:55:00 10° NW 21:59:37 41° W 21:59:37 41° W
SL-16 R/B 3.0 22:05:27 49° E 22:06:24 53° ENE 22:12:27 10° NNW
Cosmos 2221 4.2 22:14:21 32° NNE 22:14:21 32° NNE 22:16:45 10° NNE
Cosmos 1513 Rocket 4.5 22:06:39 10° NNW 22:12:11 75° N 22:12:11 75° N
Cosmos 1464 Rocket 4.0 22:07:18 10° NNW 22:13:20 80° NNW 22:13:20 80° NNW
Meteor 2-3 Rocket 4.2 22:11:41 10° NNW 22:15:59 53° NW 22:15:59 53° NW
Meteor 2-10 Rocket 3.9 22:22:33 70° NNE 22:22:33 70° NNE 22:27:34 10° NNE
CZ-2D R/B 3.4 22:24:27 10° NNE 22:29:05 30° E 22:29:08 30° E
Cosmos 2034 Rocket 3.9 22:23:49 10° NNW 22:29:46 82° N 22:29:46 82° N
ATLAS 5 CENTAUR R/B 3.4 22:33:02 26° E 22:33:02 26° E 22:35:41 10° ENE
SL-19 R/B 4.5 22:30:43 10° NNE 22:35:54 66° NW 22:35:54 66° NW
Cosmos 1898 Rocket 4.2 22:35:22 10° NNW 22:39:04 47° NNW 22:39:04 47° NNW
CZ-4B R/B 3.9 22:38:41 10° NNE 22:42:52 59° NE 22:42:52 59° NE
Cosmos 1937 Rocket 3.9 22:39:23 10° NNW 22:43:41 59° N 22:43:41 59° N
Meteor 2-11 Rocket 4.3 22:40:40 10° NNW 22:46:42 86° NW 22:46:42 86° NW
Cosmos 2082 Rocket 2.9 22:45:46 10° NW 22:49:42 43° NW 22:49:42 43° NW
Lacrosse 5 2.5 22:53:06 52° ENE 22:53:06 52° ENE 22:56:58 10° E
Cosmos 1844 Rocket 3.1 22:52:36 51° NW 22:52:42 51° NW 22:58:15 10° NNE
NOSS 3-3 (A) 4.4 22:45:35 10° NW 22:52:44 81° NE 23:00:47 10° SE
NOSS 3-3 (C) 4.4 22:45:41 10° NW 22:52:50 81° NE 23:00:53 10° ESE
Meteor 2-2 Rocket 4.2 22:58:39 88° SE 22:58:41 89° ESE 23:04:43 10° NNE
Meteor 2-20 Rocket 4.3 22:59:09 73° WNW 22:59:10 73° WNW 23:05:17 10° N
Cosmos 972 Rocket 4.1 22:58:04 10° NNW 23:02:52 65° NE 23:02:52 65° NE
SJ 16-02 2.8 22:59:16 10° NNW 23:01:36 30° NNW 23:01:36 30° NNW
Cosmos 1633 Rocket 4.2 23:00:29 10° NNW 23:03:19 40° NNW 23:03:19 40° NNW
Cosmos 1932 4.3 23:10:16 75° WSW 23:10:52 85° NW 23:17:21 10° NE
Cosmos 372 Rocket 4.4 23:09:53 10° NNW 23:15:06 61° ENE 23:16:56 38° ESE
Gbstr 26 Del rocket 4.5 23:14:16 58° SSW 23:15:20 63° SSE 23:23:16 10° E
Cosmos 2346 Rocket 4.3 23:16:48 75° SSW 23:17:24 87° W 23:23:39 10° N
H-2A R/B 3.5 23:26:33 28° NNW 23:26:33 28° NNW 23:28:38 10° NNW
CZ-4B R/B 3.3 23:24:41 31° ENE 23:24:41 31° ENE 23:27:46 10° N
ATLAS CENTAUR R/B 3.4 23:22:57 21° NW 23:25:03 29° N 23:29:09 10° NE
Cosmos 1844 4.4 23:24:24 40° WNW 23:25:15 42° NW 23:30:43 10° NNE
Cosmos 2150 Rocket 4.1 23:20:12 10° NNW 23:25:41 78° ENE 23:27:10 50° SE
ADEOS II 3.5 23:21:41 10° NNE 23:26:24 32° E 23:28:28 24° SE
Cosmos 2263 Rocket 4.3 23:23:14 12° WNW 23:26:55 21° NNW 23:31:09 10° NNE
AQUA 4.0 23:22:43 10° NNE 23:27:28 63° ESE 23:27:32 63° ESE
Tsikada Rocket 3.8 23:27:40 68° SSW 23:28:29 82° WNW 23:34:41 10° N
SL-08 R/B 3.3 23:31:28 85° NNE 23:31:28 85° NNE 23:36:11 10° NNW
Cosmos 841 Rocket 4.4 23:34:53 36° SE 23:35:57 40° ESE 23:40:48 10° NE
MOS 1-B Rocket 4.0 23:30:01 10° NNE 23:36:58 89° ESE 23:38:24 57° SSW
Resurs 1-4 Rocket 1.9 23:32:13 10° NNE 23:37:33 89° ESE 23:38:02 75° SSW
Cosmos 2278 Rocket 2.1 23:37:30 66° W 23:38:07 73° NW 23:43:50 10° NNE
Cosmos 2208 Rocket 4.4 23:37:44 49° SE 23:38:34 55° ESE 23:43:42 10° NE
Cosmos 1151 Rocket 3.2 23:40:26 68° ENE 23:40:26 68° ENE 23:44:28 10° NNE
Cosmos 2298 Rocket 3.9 23:35:39 10° NNW 23:41:01 80° WSW 23:41:25 74° SSW
Cosmos 2279 Rocket 3.9 23:37:11 10° NNW 23:43:30 88° E 23:45:57 40° SSE
USA 267 3.2 23:37:40 10° E 23:44:14 81° N 23:47:58 28° W
Cosmos 1689 Rocket 4.1 23:47:11 29° ENE 23:47:11 29° ENE 23:49:43 10° N
Cosmos 1328 Rocket 3.5 23:47:55 79° NNE 23:47:55 79° NNE 23:52:02 10° NNE
Cosmos 1634 Rocket 4.0 23:42:56 10° NNW 23:49:09 60° W 23:50:07 54° SW
SL-16 R/B 3.0 23:50:32 40° W 23:50:32 40° W 23:56:06 10° NNW
Cosmos 2221 4.3 23:51:12 20° NW 23:51:12 20° NW 23:53:49 10° N
IRS-1D 3.7 23:45:18 10° NNE 23:50:41 75° ESE 23:51:56 53° S
Cosmos 2084 Rocket 4.4 23:52:17 16° NW 23:55:40 50° NNE 23:59:58 10° E
